Regional Weather Roundup
Issued by NWS

Home | Current Version | Previous Version | Text Only | Print | Product List | Glossary On
Versions: 1 2 3 4 5 6 7 8 9 10 11 12 13 14 15 16 17 18 19 20 21 22 23 24 25 26 27 28 29 30 31 32 33 34 35 36 37 38 39 40 41 42 43 44 45 46 47 48 49 50
000
ASUS43 KTOP 240208
RWRKS

WEATHER ROUNDUP FOR KANSAS
NATIONAL WEATHER SERVICE GOODLAND KS
800 PM CST THU FEB 23 2017

NOTE:  "FAIR" INDICATES FEW OR NO CLOUDS BELOW 12,000 FEET WITH NO
SIGNIFICANT WEATHER AND/OR OBSTRUCTIONS TO VISIBILITY.

KSZ001>006-013>018-027>032-041>047-240300-
NORTHWEST KANSAS

CITY           SKY/WX    TMP DP  RH WIND       PRES   REMARKS
GOODLAND       MOCLDY    25  23  92 N24       29.70S WCI   9
HAYS           CLOUDY    36  32  85 N21       29.63R WCI  25
HILL CITY      CLOUDY    33  32  96 N17G24    29.69R WCI  22
RUSSELL        FLURRIES  36  32  85 N17       29.59R WCI  26
$$

KSZ061>065-074>080-084>089-240300-
SOUTHWEST KANSAS

CITY           SKY/WX    TMP DP  RH WIND       PRES   REMARKS
DODGE CITY     CLOUDY    36  32  85 N30G37    29.59R WCI  23
ELKHART          N/A     37  24  59 N21         N/A  WCI  26
GARDEN CITY    CLOUDY    34  30  85 N25       29.62R WCI  21
GREAT BEND     CLOUDY    38  33  82 N25G31    29.57R WCI  27
LIBERAL        MOCLDY    39  25  56 N23G31    29.62R WCI  29
PRATT          CLOUDY    38  31  76 N31G40    29.52R WCI  26
$$

KSZ066>073-081>083-090>101-240300-
SOUTHEAST KANSAS

CITY           SKY/WX    TMP DP  RH WIND       PRES   REMARKS
CHANUTE        CLEAR     67  46  47 S9        29.34F
COFFEYVILLE    CLEAR     70  47  43 S12       29.35S
HUTCHINSON     CLEAR     43  36  76 N24G39    29.47R
MEDICINE LODGE   N/A     45  35  68 N28G48    29.46R
NEWTON         CLEAR     47  41  80 N24G30    29.39R
PARSONS        CLEAR     72  46  39 S9        29.35F
WICHITA INTL   CLEAR     53  43  68 N29G38    29.36R
WICHITA JABRA  CLEAR     53  44  71 N22       29.36R
WICHITA MCCONL CLEAR     66  45  45 N16G22    29.33R
WINFIELD       PTCLDY    71  44  37 S12       29.33S
$$

KSZ007>012-019>026-033>040-048>060-102>105-240300-
NORTHEAST KANSAS

CITY           SKY/WX    TMP DP  RH WIND       PRES   REMARKS
CONCORDIA      CLOUDY    37  35  92 N22G33    29.55R WCI  26
EMPORIA        PTCLDY    55  47  74 NE15      29.35S
LAWRENCE       CLEAR     51  45  79 NE13      29.39F
MANHATTAN      MOCLDY    47  41  80 NE13      29.44R
MARYSVILLE     CLOUDY    41  37  87 N15G24    29.49F
OLATHE IND     CLEAR     51  45  79 NE13G21   29.39F
OLATHE EXE     CLEAR     50  47  89 NE14      29.40S
SALINA         CLOUDY    44  37  76 N25G35    29.51R
TOPEKA BILLARD CLEAR     52  46  80 N7        29.41R
TOPEKA FORBES  CLEAR     53  45  74 NE8       29.40R
$$




USA.gov is the U.S. government's official web portal to all federal, state and local government web resources and services.